Вернуться в каталог

CZ-2D R/B

АктивенSSO
NORAD 54030·ROCKET BODY·🇨🇳 China

Запущен Oct 8, 2022 с Jiuquan Satellite Launch Center

Loading…

Ближайшие Пролёты (ближайшие 24 часа)

TLE

СвежийSource: Space-Track

Эпоха: Sep 14, 2026, 22:27 UTC

1 54030U 22129B   26257.93565804  .00000245  00000-0  64770-4 0  9999
2 54030  98.2169 259.7399 0017522 350.5917   9.4950 14.56852666209074

Отслеживайте CZ-2D R/B в реальном времени с AllMySat

Download on the App Store